Charlotte, NC

7:20 PM EST on November 22, 2017 (GMT -0500)
Charlotte-Douglas International

Weather History for KCLT - November, 2013

Change the Weather History Date:

Tuesday, November 26, 2013

  Actual Average Record
Temperature  
Mean Temperature 39 °F 48 °F  
Max Temperature 46 °F 59 °F 75 °F (2001)
Min Temperature 32 °F 36 °F 11 °F (1950)
Degree Days  
Heating Degree Days 26 18  
Month to date heating degree days 402 357  
Since 1 July heating degree days 535 563  
Cooling Degree Days 0 0  
Month to date cooling degree days 1 0  
Year to date cooling degree days 1577 1513  
Moisture  
Dew Point 35 °F    
Average Humidity 64    
Maximum Humidity 100    
Minimum Humidity 27    
Precipitation  
Precipitation 2.36 in 0.11 in 2.36 in (2013)
Month to date precipitation 3.31 2.69  
Year to date precipitation 42.17 37.93  
Snow  
Snow 0.00 in 0.00 in T in (1956)
Month to date snowfall T 0.1  
Since 1 July snowfall T 0.1  
Since 1 September snowfall T 0.1  
Snow Depth 0.00 in    
Sea Level Pressure  
Sea Level Pressure 29.94 in    
Wind  
Wind Speed 8 mph (NNE)    
Max Wind Speed 18 mph    
Max Gust Speed 23 mph    
Visibility 4 miles    
Events Rain    
T = Trace of Precipitation, MM = Missing Value Source: NWS Daily Summary

Daily Weather History Graph

Daily Weather History Graph

Search for Another Location

Airport or City:

Trip Planner

Search our weather history database for the weather conditions in past years. The results will help you decide how hot, cold, wet, or windy it might be!

Date:

Astronomy

Nov. 26, 2013 Rise Set
Actual Time 7:09 AM EST 5:12 PM EST
Civil Twilight 6:41 AM EST 5:40 PM EST
Nautical Twilight 6:10 AM EST 6:11 PM EST
Astronomical Twilight 5:40 AM EST 6:41 PM EST
Moon 12:26 AM EST (11/26) 1:05 PM EST (11/26)
Length of Visible Light 10h 58m
Length of Day
10h 03m
Last Quarter, 41% of the Moon is Illuminated
Nov 26
Last Quarter
Dec 2
New
Dec 9
First Quarter
Dec 17
Full
Dec 25
Last Quarter

Hourly Weather History & Observations

Time (EST) Temp. Windchill Dew Point Humidity Pressure Visibility Wind Dir Wind Speed Gust Speed Precip Events Conditions
12:52 AM 39.9 °F 35.1 °F 10.0 °F 29% 30.30 in 10.0 mi ENE 6.9 mph - N/A   Overcast
1:52 AM 39.9 °F 35.8 °F 10.9 °F 31% 30.28 in 10.0 mi NE 5.8 mph - N/A   Overcast
2:52 AM 39.9 °F 36.7 °F 9.0 °F 28% 30.26 in 10.0 mi ENE 4.6 mph - N/A   Overcast
3:52 AM 39.0 °F 34.8 °F 10.9 °F 32% 30.26 in 10.0 mi North 5.8 mph - N/A   Overcast
4:52 AM 35.1 °F 27.9 °F 25.0 °F 67% 30.26 in 10.0 mi North 9.2 mph - 0.00 in Rain Light Rain
5:52 AM 32.0 °F 24.2 °F 28.9 °F 88% 30.23 in 5.0 mi NNE 9.2 mph - 0.10 in Rain Light Rain
6:22 AM 32.0 °F 23.6 °F 30.2 °F 93% 30.20 in 5.0 mi NNE 10.4 mph - 0.05 in Rain Light Rain
6:52 AM 33.1 °F 25.5 °F 30.9 °F 92% 30.19 in 5.0 mi NE 9.2 mph - 0.11 in Rain Light Rain
7:12 AM 33.8 °F 26.4 °F 32.0 °F 93% 30.16 in 5.0 mi NE 9.2 mph - 0.05 in Rain Light Rain
7:50 AM 33.8 °F 26.4 °F 32.0 °F 93% 30.14 in 2.5 mi NE 9.2 mph - 0.15 in Rain Light Rain
7:52 AM 34.0 °F 26.6 °F 32.0 °F 92% 30.15 in 2.5 mi NE 9.2 mph - 0.15 in Rain Light Rain
8:00 AM 33.8 °F 27.0 °F 33.8 °F 100% 30.14 in 4.0 mi NE 8.1 mph - 0.02 in Rain Light Rain
8:42 AM 33.8 °F 27.0 °F 33.8 °F 100% 30.12 in 2.5 mi NNE 8.1 mph - 0.11 in Rain Light Rain
8:52 AM 34.0 °F 28.0 °F 33.1 °F 96% 30.13 in 4.0 mi North 6.9 mph - 0.12 in Rain Light Rain
10:13 AM 35.6 °F 28.6 °F 33.8 °F 93% 30.10 in 2.0 mi NNE 9.2 mph - 0.06 in Rain Light Rain
10:52 AM 35.1 °F 27.4 °F 34.0 °F 96% 30.06 in 2.0 mi NNE 10.4 mph - 0.17 in Rain Light Rain
11:13 AM 35.6 °F 28.0 °F 35.6 °F 100% 30.02 in 4.0 mi NE 10.4 mph - 0.06 in Rain Light Rain
11:52 AM 37.0 °F 31.0 °F 36.0 °F 96% 29.98 in 3.0 mi ENE 8.1 mph - 0.13 in Rain Light Rain
11:54 AM 37.4 °F 30.8 °F 35.6 °F 93% 29.97 in 3.0 mi ENE 9.2 mph - 0.01 in Rain Light Rain
12:04 PM 37.4 °F 31.4 °F 35.6 °F 93% 29.96 in 3.0 mi ENE 8.1 mph - 0.02 in Rain Light Rain
12:11 PM 37.4 °F 30.8 °F 37.4 °F 100% 29.96 in 3.0 mi ENE 9.2 mph - 0.02 in Rain Light Rain
12:33 PM 37.4 °F 32.1 °F 37.4 °F 100% 29.94 in 3.0 mi ENE 6.9 mph - 0.07 in Rain Light Rain
12:52 PM 39.0 °F 34.8 °F 37.9 °F 96% 29.93 in 3.0 mi ENE 5.8 mph - 0.11 in Rain Light Rain
1:08 PM 39.2 °F 35.0 °F 37.4 °F 93% 29.91 in 2.5 mi NE 5.8 mph - 0.03 in Rain Light Rain
1:21 PM 39.2 °F 35.0 °F 39.2 °F 100% 29.90 in 1.8 mi NE 5.8 mph - 0.08 in Rain Light Rain
1:28 PM 39.2 °F - 39.2 °F 100% 29.90 in 2.5 mi Calm Calm - 0.10 in Rain Light Rain
1:35 PM 39.2 °F 35.0 °F 39.2 °F 100% 29.89 in 3.0 mi North 5.8 mph - 0.12 in Rain Light Rain
1:42 PM 39.2 °F 34.2 °F 39.2 °F 100% 29.88 in 1.8 mi NNE 6.9 mph - 0.15 in Rain Light Rain
1:52 PM 39.9 °F 35.1 °F 39.0 °F 97% 29.88 in 2.0 mi NNW 6.9 mph - 0.17 in Rain Light Rain
2:52 PM 39.9 °F 35.8 °F 39.0 °F 97% 29.83 in 2.5 mi NNW 5.8 mph - 0.12 in Rain Rain
3:52 PM 41.0 °F 37.1 °F 41.0 °F 100% 29.76 in 2.5 mi North 5.8 mph - 0.10 in Rain Rain
4:26 PM 41.0 °F 33.9 °F 39.2 °F 93% 29.74 in 3.0 mi NNW 12.7 mph - 0.17 in Rain Rain
4:33 PM 41.0 °F 33.5 °F 39.2 °F 93% 29.73 in 1.8 mi North 13.8 mph - 0.20 in Rain Heavy Rain
4:48 PM 39.2 °F 32.5 °F 39.2 °F 100% 29.72 in 3.0 mi NNW 10.4 mph - 0.29 in Rain Rain
4:52 PM 39.9 °F 32.1 °F 39.9 °F 100% 29.72 in 3.0 mi NW 13.8 mph - 0.29 in Rain Light Rain
5:52 PM 39.9 °F 35.1 °F 39.9 °F 100% 29.70 in 3.0 mi NNW 6.9 mph 17.3 mph 0.31 in Rain Heavy Rain
6:52 PM 42.1 °F 34.2 °F 41.0 °F 96% 29.73 in 3.0 mi North 16.1 mph 20.7 mph 0.17 in Rain Rain
7:07 PM 42.8 °F 36.6 °F 41.0 °F 93% 29.72 in 4.0 mi NW 11.5 mph 23.0 mph 0.01 in Rain Light Rain
7:52 PM 43.0 °F 38.8 °F 43.0 °F 100% 29.72 in 7.0 mi North 6.9 mph - 0.03 in Rain Light Rain
8:13 PM 44.6 °F 40.2 °F 42.8 °F 93% 29.69 in 9.0 mi North 8.1 mph - 0.00 in Rain Light Rain
8:52 PM 44.1 °F 39.0 °F 43.0 °F 96% 29.66 in 6.0 mi NNE 9.2 mph - 0.01 in Rain Light Rain
9:40 PM 44.6 °F 41.4 °F 42.8 °F 93% 29.66 in 2.5 mi North 5.8 mph - 0.04 in Rain Light Rain
9:52 PM 44.1 °F 41.5 °F 44.1 °F 100% 29.66 in 2.5 mi North 4.6 mph - 0.06 in Rain Light Rain
10:52 PM 45.0 °F 42.6 °F 45.0 °F 100% 29.64 in 4.0 mi ENE 4.6 mph - 0.06 in Rain Light Rain
11:50 PM 44.6 °F 42.2 °F 44.6 °F 100% 29.62 in 2.5 mi NW 4.6 mph - 0.05 in Rain Rain
11:52 PM 45.0 °F 41.8 °F 45.0 °F 100% 29.62 in 2.0 mi NNW 5.8 mph - 0.06 in Rain Heavy Rain